Regional Weather Roundup
Issued by NWS

Home | Current Version | Previous Version | Text Only | Print | Product List | Glossary On
Versions: 1 2 3 4 5 6 7 8 9 10 11 12 13 14 15 16 17 18 19 20 21 22 23 24 25 26 27 28 29 30 31 32 33 34 35 36 37 38 39 40 41 42 43 44 45 46 47 48 49 50
738
ASUS43 KTOP 290459
RWRKS

WEATHER ROUNDUP FOR KANSAS
NATIONAL WEATHER SERVICE GOODLAND KS
1200 AM CDT THU SEP 29 2016

NOTE:  "FAIR" INDICATES FEW OR NO CLOUDS BELOW 12,000 FEET WITH NO
SIGNIFICANT WEATHER AND/OR OBSTRUCTIONS TO VISIBILITY.

KSZ001>006-013>018-027>032-041>047-290600-
NORTHWEST KANSAS

CITY           SKY/WX    TMP DP  RH WIND       PRES   REMARKS
GOODLAND       CLEAR     51  41  68 SE7       30.36R
HAYS           CLEAR     52  37  58 NE3       30.33R
HILL CITY      CLEAR     47  43  86 NE5       30.35R
RUSSELL        CLEAR     53  45  74 E8        30.32R
$$

KSZ061>065-074>080-084>089-290600-
SOUTHWEST KANSAS

CITY           SKY/WX    TMP DP  RH WIND       PRES   REMARKS
DODGE CITY     CLEAR     56  42  59 E12       30.31R
ELKHART          N/A     60  40  47 E12         N/A
GARDEN CITY    CLEAR     57  37  47 E12       30.32R
GREAT BEND     CLEAR     54  39  58 CALM      30.32R
LIBERAL        CLEAR     59  39  47 SE7       30.34R
$$

KSZ066>073-081>083-090>101-290600-
SOUTHEAST KANSAS

CITY           SKY/WX    TMP DP  RH WIND       PRES   REMARKS
CHANUTE        CLEAR     55  49  80 N9        30.26R
COFFEYVILLE    CLEAR     57  49  74 N10       30.25R
HUTCHINSON     CLEAR     55  46  71 NE7       30.30R
MEDICINE LODGE   N/A     57  47  69 NE10      30.29R
PARSONS        CLEAR     55  49  80 N5        30.27R
WICHITA INTL   CLEAR     56  47  71 NE9       30.28R
WICHITA JABRA  CLEAR     51  48  89 N7        30.29R
WINFIELD       CLEAR     56  48  74 NE7       30.28R
$$

KSZ007>012-019>026-033>040-048>060-102>105-290600-
NORTHEAST KANSAS

CITY           SKY/WX    TMP DP  RH WIND       PRES   REMARKS
CONCORDIA      CLEAR     51  45  79 NE6       30.33R
EMPORIA        CLEAR     53  48  83 N5        30.29R
LAWRENCE       CLEAR     49  48  97 NW5       30.29R
MANHATTAN      CLEAR     51  47  86 CALM      30.31R
OLATHE IND     CLEAR     52  47  83 N8        30.28R
OLATHE EXE     CLEAR     54  46  74 N5        30.27S
SALINA         CLEAR     58  46  64 NE5       30.32R
TOPEKA BILLARD MOCLDY    52  48  86 W3        30.30R
TOPEKA FORBES  MOCLDY    53  48  83 N6        30.29S
$$




USA.gov is the U.S. government's official web portal to all federal, state and local government web resources and services.